Погода в Джермуке

Армения     39°50′25″N   45°40′13″E
темп.,
°C
ветер,
м/с
пор.,
м/с
влажн.,
%
обл.,
%
осадки,
мм/ч
давл.,
гПа
погр.,
м
7 июля, чт
чт701:00+6всв44844 0.0 101852
04:00+6всв43681 0.0 101737
07:00+9всв336561 0.0 101570
10:00+15ююв335964 0.2 1013737
13:00+16ююв335782 0.8 1012996
16:00+16юв445966 2.4 10121037
19:00+13вюв347760 1.4 1014180
22:00+9всв33830 1.6 101630
8 июля, пт
пт801:00+9всв33771 0.0 101526
04:00+8всв337737 0.0 101526
07:00+11всв227270 0.0 101445
10:00+16ю325746 0.0 1012766
13:00+19ююв335211 1.3 10111523
16:00+13всв3481100 3.6 1013111
19:00+13в337874 1.1 1012121
22:00+10в338397 1.2 101532
9 июля, сб
сб901:00+10всв337915 0.1 101423
04:00+9всв32770 0.1 101421
07:00+12в22744 0.0 101346
10:00+17ю32574 0.0 1011651
13:00+20ю334710 0.1 10091962
16:00+18вюв345884 0.2 1009674
19:00+16вюв44635 0.1 1009305
22:00+10всв44700 0.3 101345
10 июля, вс
вс1001:00+11всв43585 0.0 101232
04:00+11всв43530 0.0 101127
07:00+12в33610 0.0 101046
10:00+19ююв34472 0.0 1008664
13:00+21юв44430 0.0 10071066
16:00+22юв54440 0.0 10061026
19:00+18вюв44622 0.0 1008235
22:00+12всв546769 0.0 101254
11 июля, пн
пн1101:00+13всв43514 0.0 101029
04:00+13всв43440 0.0 100922
07:00+15всв33530 0.0 100931
10:00+21ююв34410 0.0 1007631
13:00+23юв44400 0.0 10071066
16:00+24юв44400 0.0 10071149
19:00+20вюв34610 0.0 1009155
22:00+13всв54700 0.0 101554